Weather Roundup
Issued by NWS

Home | Current Version | Previous Version | Text Only | Print | Product List | Glossary On
Versions: 1 2 3 4 5 6 7 8 9 10 11 12 13 14 15 16 17 18 19 20 21 22 23 24 25 26 27 28 29 30 31 32 33 34 35 36 37 38 39 40 41 42 43 44 45 46 47 48 49 50
408
NZUS93 KARX 231210
HRRWXR

CURRENT HOURLY OBSERVATIONS ACROSS
MUCH OF THE UPPER MISSISSIPPI VALLEY
NATIONAL WEATHER SERVICE LA CROSSE WI
600 AM CST TUE JAN 23 2018


...SOUTHEAST MINNESOTA...


CITY           SKY/WX    TMP DP  RH WIND       PRES   REMARKS
ROCHESTER      CLOUDY    20  17  88 NW24G32   29.86R WCI   3
ROCHESTER/MAYO CLOUDY    21  17  85 NW12G21   29.87R WCI   9
WINONA         CLOUDY    28  23  80 NW16      29.83R WCI  17
AUSTIN         FAIR      21  18  86 NW17G23   29.87R WCI   7
ALBERT LEA     FAIR      19  16  86 NW14G22   29.90R WCI   6
DODGE CENTER   FAIR      18  16  93 NW12      29.87R WCI   5
PRESTON        CLOUDY    22  18  86 N15G21    29.82R WCI   8
OWATONNA         N/A     18  14  86 NW15      29.92R WCI   3
FARIBAULT      FAIR      18  14  86 NW6       29.94R WCI   9
$$

...ELSEWHERE IN MINNESOTA...


CITY           SKY/WX    TMP DP  RH WIND       PRES   REMARKS
MINNEAPOLIS    CLOUDY    20  15  81 N16G24    29.95R WCI   6
INTNL FALLS    FAIR       4  -1  80 NE6       30.05R WCI  -7
DULUTH         CLOUDY     7   1  76 N16       29.92R WCI -11
RED WING       CLOUDY    19  12  73 N7        29.92R WCI  10
REDWOOD FALLS  CLOUDY    23  18  81 N16G25    30.02R WCI  10
MANKATO        FAIR      19  15  84 NW14      29.97R WCI   6
WORTHINGTON    CLOUDY    20  19  96 N20       30.00R WCI   4
FAIRMONT       CLEAR     19  17  92 NW21      29.97R WCI   3
$$

...SOUTHWEST WISCONSIN...


CITY           SKY/WX    TMP DP  RH WIND       PRES   REMARKS
LA CROSSE      FLURRIES  28  23  81 NW17      29.80R WCI  16
PRAIRIE DU CHI CLOUDY    28  21  74 NW14G21   29.80R WCI  17
BOSCOBEL       MIX PCPN  29  21  72 N10G23    29.78R WCI  20
LONE ROCK      CLOUDY    27  21  78 NW16G30   29.75R WCI  15
PLATTEVILLE    CLOUDY    29  26  90 NW18G25   29.72R WCI  16
FORT MC COY    LGT SNOW  24  22  91 NW10      29.79R WCI  14
CAMP DOUGLAS   LGT SNOW  25  23  93 NW12      29.74R FOG     WCI  14
MAUSTON-NEW LI LGT SNOW  25  23  91 NW12      29.73R WCI  14
VIROQUA        CLOUDY    24  23  93 NW14      29.75R WCI  12
WIS DELLS      CLOUDY    26  21  82 N10G20    29.71R WCI  16
$$

...ELSEWHERE IN WISCONSIN...


CITY           SKY/WX    TMP DP  RH WIND       PRES   REMARKS
MILWAUKEE      LGT SNOW  30  28  92 NW13G21   29.60R FOG     WCI  20
MADISON        CLOUDY    27  22  81 N18G29    29.69R WCI  14
GREEN BAY      CLOUDY    27  22  81 N18G26    29.63R WCI  14
EAU CLAIRE     CLOUDY    22  19  89 N10       29.84R WCI  11
BLACK RVR FLS  LGT SNOW  24  23  93 NW8       29.79R WCI  16
MEDFORD        CLOUDY    19  16  86 N15G24    29.73R WCI   5
WAUSAU         FLURRIES  22  17  81 N16G28    29.68R WCI   8
WIS RAPIDS     NOT AVBL
MARSHFIELD     CLOUDY    22  17  81 N15       29.71R WCI   9
RICE LAKE      CLOUDY    19  16  87 NW15      29.88R WCI   5
$$

...NORTHEAST IOWA...


CITY           SKY/WX    TMP DP  RH WIND       PRES   REMARKS
WATERLOO       CLOUDY    27  22  81 NW23      29.86R WCI  12
DUBUQUE        CLOUDY    28  23  81 N16       29.73R WCI  16
DECORAH        FLURRIES  25  23  93 NW14G24   29.80R WCI  13
MASON CITY     CLOUDY    22  17  81 N25G35    29.91R WCI   5
CHARLES CITY   CLOUDY    27  27 100 NW20G29   29.86R WCI  13
OELWEIN        CLOUDY    27  27 100 N23G32    29.82R WCI  12
$$

...ELSEWHERE IN IOWA...


CITY           SKY/WX    TMP DP  RH WIND       PRES   REMARKS
DES MOINES     CLOUDY    29  24  82 NW18G30   29.95R WCI  16
IOWA CITY      CLOUDY    31  23  72 NW21G28   29.81R WCI  18
FORT DODGE     NOT AVBL
MARSHALLTOWN   CLOUDY    28  23  81 NW20G33   29.89R WCI  15
CEDAR RAPIDS   CLOUDY    30  23  75 NW18G28   29.80R WCI  18
$$

...NORTHERN ILLINOIS...


CITY           SKY/WX    TMP DP  RH WIND       PRES   REMARKS
CHICAGO-OHARE  LGT SNOW  32  29  88 NW14      29.61R FOG     WCI  22
CHICAGO-MIDWAY LGT SNOW  33  32  96 NW9       29.60R VSB 1   WCI  25
MOLINE         CLOUDY    34  30  85 NW18G25   29.73R WCI  23
ROCKFORD       CLOUDY    31  27  85 N13       29.68R WCI  21
PEORIA         CLOUDY    36  34  92 NW8G21    29.72R FOG     WCI  30
$$

NOTE: "FAIR" INDICATES FEW OR NO CLOUDS BELOW 12,000 FEET WITH NO
SIGNIFICANT WEATHER AND/OR OBSTRUCTIONS TO VISIBILITY. WIND
SPEEDS ARE IN MILES-PER-HOUR.




USA.gov is the U.S. government's official web portal to all federal, state and local government web resources and services.